Back to catalog

USA 395

AliveMilitaryVLEO
NORAD 60178·PAYLOAD·🇺🇸 United States

Launched Jun 29, 2024 from Vandenberg Space Force Base

Loading…

Next Passes (next 24 hours)

TLE

StaleSource: Mike McCants

Epoch: Aug 26, 2026, 00:41 UTC

1 60178U 24121W   26238.02868745 0.00000000  00000-0  00000-0 0    06
2 60178  70.0180 211.4834 0003000 216.3023 143.6977 14.96713300    04

Track USA 395 in real time with AllMySat

Download on the App Store